Hourly Data Report for October 06, 2017

All times are specified in Local Standard Time (LST). Add 1 hour to adjust for Daylight Saving Time where and when it is observed.

FORT SMITH A
NORTHWEST TERRITORIES

60°01'13.000" N
111°57'43.000" W
205.10 m
2202201
71934
YSM

Download Data

Hourly Data (October 2017)
Hourly Data Report for October 6, 2017
Temp Definition
°C
Dew Point Temp Definition
°C
Rel Hum Definition
%
Wind Dir Definition
10's deg

Wind Spd Definition
km/h
Visibility Definition
km
Stn Press Definition
kPa
Hmdx Definition


Wind Chill Definition


Weather Definition


TIME
00:00 Legend Double Dagger 3.4 1.9 90 15 7 24.1 97.03     LegendNANA
01:00 Legend Double Dagger 2.9 1.5 90 15 6 24.1 96.97     LegendNANA
02:00 Legend Double Dagger 3.8 2.3 90 19 5 24.1 96.94     Mainly Clear
03:00 Legend Double Dagger 2.9 1.1 88 18 6 24.1 96.87     LegendNANA
04:00 Legend Double Dagger 3.5 1.8 88 17 7 24.1 96.83     LegendNANA
05:00 Legend Double Dagger 2.9 1.1 88 15 7 24.1 96.73     Mostly Cloudy
06:00 Legend Double Dagger 3.7 1.5 86 14 6 24.1 96.65     LegendNANA
07:00 Legend Double Dagger 4.5 1.9 84 36 3 24.1 96.62     LegendNANA
08:00 Legend Double Dagger 6.7 2.7 76 18 5 24.1 96.53     Cloudy
09:00 Legend Double Dagger 6.0 4.3 89 36 2 24.1 96.47     LegendNANA
10:00 Legend Double Dagger 7.6 3.3 74 36 1 24.1 96.45     LegendNANA
11:00 Legend Double Dagger 8.6 4.6 76 15 5 24.1 96.42     Cloudy
12:00 Legend Double Dagger 9.3 5.1 75 27 11 24.1 96.39     Rain
13:00 Legend Double Dagger 9.7 6.5 81 21 12 24.1 96.35     Rain
14:00 Legend Double Dagger 10.3 7.2 81 19 11 24.1 96.28     Rain
15:00 Legend Double Dagger 11.0 6.5 74 20 9 24.1 96.26     Rain
16:00 Legend Double Dagger 10.9 5.9 71 20 12 24.1 96.23     LegendNANA
17:00 Legend Double Dagger 10.3 5.5 72 23 11 24.1 96.22     Rain
18:00 Legend Double Dagger 9.4 6.0 79 23 10 24.1 96.22     LegendNANA
19:00 Legend Double Dagger 9.0 6.0 81 23 11 24.1 96.20     LegendNANA
20:00 Legend Double Dagger 8.3 5.9 85 27 8 24.1 96.18     Cloudy
21:00 Legend Double Dagger 8.1 6.0 87 29 10 24.1 96.19     Rain
22:00 Legend Double Dagger 7.5 4.4 81 32 8 19.3 96.20     Rain
23:00 Legend Double Dagger 6.3 5.0 91 32 7 24.1 96.23     Rain

Notes on Data Quality.

Legend

  • E = Estimated
  • M = Missing
  • NA = Not Available
  • ‡ = Partner data that is not subject to review by the National Climate Archives
Date modified: